Theta_e
323 323 322 322 323 323 323 324 325 326 327 325 325 325 325 324 324 322 323 324 324 324 324 322 320 321 322 323 322 320 319 322 317 321 324 325 325 327 329 330 329 326 322
323 322 322 322 322 322 323 325 325 325 326 326 326 325 325 324 323 323 323 325 324 323 323 323 321 322 319 323 322 320 320 324 321 316 322 320 321 322 324 324 323 324 323
322 321 321 321 321 322 324 325 326 325 325 326 326 325 325 326 325 324 325 326 324 323 322 323 323 322 322 322 321 320 321 324 324 321 318 320 319 320 318 320 320 320 320
322 321 321 321 321 322 323 325 325 325 324 325 325 326 327 327 325 325 326 325 324 322 323 323 325 324 323 321 320 321 323 323 321 318 318 317 317 318 317 315 314 318 317
322 322 322 322 322 323 323 324 325 325 325 325 325 326 326 325 325 326 325 323 323 324 325 325 325 323 320 320 323 322 324 322 319 317 316 315 315 314 313 314 313 314 314
323 323 323 322 323 323 323 324 324 324 325 325 325 325 324 322 307 312 320 323 323 322 322 324 323 320 316 312 315 315 320 320 319 317 316 314 314 314 314 313 311 310 306
323 324 325 324 323 323 323 323 322 322 323 322 323 323 320 316 302 305 311 323 323 322 322 323 324 324 321 321 311 310 311 312 315 321 317 316 314 315 315 313 313 312 309
323 325 326 324 323 323 323 322 320 320 321 320 322 319 318 313 301 302 309 322 322 322 322 322 322 323 321 320 319 319 321 322 323 322 320 319 319 320 317 316 312 310 311
323 324 325 324 323 323 322 320 320 320 319 321 320 319 319 316 301 303 316 324 323 322 322 322 321 319 303 305 317 314 314 312 307 307 307 304 302 304 311 314 311 309 307
323 325 325 324 324 323 321 319 320 321 318 319 319 318 313 319 300 302 315 322 320 319 320 318 308 313 300 303 316 314 312 312 312 312 311 306 309 307 308 317 315 311 309
324 325 323 324 324 323 320 320 320 318 317 316 316 317 319 317 312 302 306 322 320 319 318 317 313 299 299 301 307 316 312 314 310 315 315 314 315 316 316 316 317 316 313
324 324 322 322 324 322 321 319 320 318 316 316 316 319 320 318 305 302 302 305 310 318 318 317 308 297 298 300 307 299 301 309 316 315 314 314 314 315 314 314 315 317 317
322 322 322 323 323 321 320 318 319 318 317 317 316 318 318 318 317 299 298 299 303 317 318 306 296 296 297 300 299 300 306 316 315 314 314 315 316 318 314 314 315 316 315
320 320 322 322 321 321 321 320 320 319 320 318 316 317 318 317 317 315 312 311 304 307 304 306 304 305 305 307 309 313 318 319 318 317 317 314 316 317 316 317 315 315 316
320 320 322 321 321 320 319 319 321 322 319 319 318 318 319 317 317 309 311 316 316 309 312 315 315 314 313 315 318 319 319 319 318 318 317 315 316 317 317 317 316 315 316
318 319 320 321 321 321 316 314 296 299 301 301 302 313 318 304 299 299 299 297 297 300 315 316 315 315 315 317 318 318 318 316 319 319 318 317 316 316 316 316 316 316 315
318 318 319 319 321 319 317 316 316 309 297 297 296 298 303 300 296 296 294 293 293 302 315 316 317 316 317 319 319 319 318 319 319 319 318 317 317 317 313 317 317 316 315
319 307 320 321 322 320 319 318 318 317 317 318 299 300 294 293 293 292 292 299 309 310 316 317 317 317 318 319 320 320 321 319 320 319 319 319 317 316 315 316 317 316 316
319 319 320 321 321 319 320 318 318 317 318 317 311 303 294 291 291 291 294 317 313 313 314 316 318 319 318 319 319 319 319 319 318 319 319 319 320 319 316 317 318 302 305
321 309 313 320 318 319 318 317 316 315 316 317 317 316 305 305 309 308 308 317 317 315 315 316 317 318 319 320 320 319 318 316 318 320 321 321 321 320 320 320 320 318 312
321 317 307 321 319 319 318 317 317 315 314 314 317 312 297 317 316 314 313 314 317 319 317 316 317 318 319 320 320 320 319 319 319 321 321 321 321 320 320 321 320 320 320
321 320 320 322 322 321 320 319 317 316 315 314 315 311 291 315 319 318 317 317 318 321 322 320 319 319 320 319 319 320 320 320 320 319 319 320 320 320 321 319 320 319 318
320 320 321 322 323 310 317 320 319 318 316 315 315 313 304 312 319 320 320 320 319 319 322 323 323 322 322 323 322 320 319 320 321 321 320 320 319 319 319 319 318 318 317
321 320 320 320 321 320 321 322 321 308 318 318 316 314 312 313 317 321 322 322 322 321 321 322 323 324 325 325 325 325 324 324 323 321 321 320 319 315 319 318 318 317 317
322 321 321 321 319 319 318 319 321 321 321 321 320 319 316 314 316 319 322 323 323 323 322 322 323 323 324 325 325 326 317 299 318 312 324 323 322 322 320 320 319 318 317
310 313 314 316 318 319 319 318 318 318 319 320 322 322 322 318 317 317 319 321 322 323 323 324 324 324 324 325 325 315 301 297 304 297 321 323 322 321 321 320 320 318 317
Wind_Speed
8 7 8 6 6 5 5 4 4 4 5 5 5 5 5 5 5 4 3 3 4 3 2 4 4 3 3 3 3 2 3 2 6 2 2 3 3 4 3 7 9 10 12
8 8 7 6 5 5 5 5 5 5 4 5 5 5 5 5 5 4 4 4 4 4 4 4 4 2 3 3 3 3 3 2 4 8 2 4 4 4 4 10 8 10 12
8 8 6 6 5 5 5 5 4 5 5 4 5 5 5 5 6 4 4 3 4 4 4 4 3 4 4 3 3 4 4 4 4 7 4 2 4 5 9 8 11 12 10
8 7 6 6 5 5 5 5 5 5 5 4 4 4 3 4 4 4 3 3 3 3 3 3 3 3 3 4 4 6 7 8 7 7 6 5 4 5 8 11 10 12 12
8 7 6 5 5 5 5 5 5 4 4 4 4 4 4 4 3 4 4 4 3 3 3 4 4 5 6 6 5 7 9 8 8 8 6 7 8 6 8 8 12 10 10
8 7 6 6 5 5 5 5 5 4 4 4 4 4 5 3 4 7 6 4 4 4 5 5 4 5 8 8 7 8 9 11 10 9 6 9 8 9 9 9 12 11 6
8 7 7 6 6 5 5 5 4 5 4 4 5 5 5 4 2 8 9 5 4 5 5 4 4 3 4 6 6 7 8 7 6 11 13 9 12 14 12 11 9 6 6
7 8 7 6 6 5 6 5 4 4 4 3 5 5 6 3 4 4 6 5 4 4 5 3 3 4 3 4 5 6 6 7 8 6 9 10 12 11 12 10 10 10 9
8 8 8 8 7 6 6 5 3 4 3 3 4 5 6 4 3 4 5 5 5 5 4 3 4 5 7 10 7 8 9 6 9 15 15 16 15 15 13 12 10 11 6
8 9 9 8 8 7 6 6 3 3 4 4 5 4 6 4 2 5 4 4 4 3 4 4 6 8 8 10 8 9 10 9 12 13 12 13 13 11 9 6 10 11 6
9 7 7 7 7 7 6 3 5 6 6 4 5 3 5 4 4 5 5 2 4 3 3 3 3 9 10 10 10 8 9 11 14 12 11 9 10 8 6 5 4 7 6
8 8 6 7 6 6 8 4 6 7 6 5 5 4 4 3 3 3 5 4 4 3 3 3 4 9 12 13 9 15 14 11 10 10 10 9 8 7 6 5 5 5 3
8 7 6 7 6 7 8 7 6 5 5 5 5 4 3 2 2 9 7 6 6 4 3 6 11 11 13 12 14 13 10 8 8 9 9 8 6 7 7 5 4 6 5
9 7 7 8 7 6 5 5 7 5 4 4 5 4 3 2 2 3 3 4 7 6 6 6 7 8 9 9 8 7 8 7 8 8 8 6 6 6 6 4 4 5 2
8 8 7 6 7 7 5 3 5 4 4 6 4 5 5 4 3 5 5 4 4 5 7 5 5 5 7 6 5 6 7 7 7 7 8 8 7 6 5 4 3 4 3
8 7 7 7 6 6 6 4 8 3 6 5 8 6 1 5 10 9 8 8 10 9 3 4 5 5 5 4 6 6 7 6 7 7 7 7 7 6 6 4 2 4 4
10 8 7 7 7 7 6 6 6 4 7 4 7 7 8 9 10 9 8 8 8 3 2 3 5 5 5 4 5 5 6 5 7 7 7 7 7 7 6 6 5 4 4
11 12 9 8 7 7 6 6 5 6 6 4 5 3 3 8 10 11 12 9 2 1 3 5 5 5 5 5 6 6 6 5 5 6 7 8 8 8 7 8 8 7 6
10 8 8 7 7 8 6 6 5 5 5 5 3 4 7 9 9 7 9 4 5 5 4 5 5 4 5 6 6 6 5 5 7 7 7 8 8 7 7 8 7 8 7
9 13 11 8 7 7 6 7 6 5 5 6 6 5 5 4 4 4 4 5 5 6 6 6 7 8 7 6 5 5 7 6 7 8 8 8 8 9 10 9 9 8 7
8 8 10 8 8 8 8 8 7 7 6 6 6 7 10 9 9 9 8 7 7 7 7 7 7 8 8 8 9 9 9 8 9 8 8 8 8 8 9 9 9 9 9
7 9 9 9 7 8 8 8 8 8 7 7 5 5 9 6 7 8 9 9 9 9 8 8 8 8 9 9 9 10 10 10 10 9 9 9 9 9 9 10 10 10 10
6 7 8 7 7 7 6 7 7 7 7 7 6 6 7 9 8 9 9 9 9 9 8 8 9 9 9 9 10 10 11 11 11 9 10 10 10 10 10 10 11 11 10
5 6 4 4 5 6 7 7 7 7 7 7 7 7 8 9 9 10 9 9 9 9 9 9 10 13 11 10 10 11 11 11 9 11 15 11 11 10 10 11 11 13 11
8 5 5 2 1 2 4 5 5 6 6 6 6 7 7 7 8 9 8 8 8 9 12 12 11 15 18 19 17 18 15 13 15 13 11 14 15 15 13 11 12 11 13
11 11 9 8 8 6 3 3 3 2 2 3 4 5 6 7 7 7 7 8 9 10 11 10 13 19 19 17 21 20 14 15 16 15 14 12 13 13 12 15 18 12 13
Wind_Direction
128 122 121 123 125 133 138 138 148 145 143 148 151 142 163 155 164 147 196 208 202 195 178 181 210 178 191 189 178 164 171 142 129 107 97 51 46 59 105 115 133 121 125
135 124 124 128 132 136 131 150 145 144 148 148 143 153 159 158 162 163 201 209 201 179 189 187 213 187 182 197 171 159 171 176 126 122 95 63 65 46 87 116 117 120 131
126 121 127 130 137 141 154 145 138 136 133 141 146 162 171 170 170 176 207 212 181 184 193 197 216 187 193 166 158 157 144 117 101 113 108 80 67 90 90 96 117 107 114
127 132 138 153 149 156 148 139 133 144 140 152 166 173 190 159 139 172 176 170 153 167 165 149 142 166 178 133 149 155 133 122 122 107 108 100 89 84 106 108 106 111 112
137 143 158 151 145 147 140 127 125 151 153 161 145 131 124 133 137 154 142 132 131 112 114 106 114 104 110 127 142 139 142 126 129 126 123 118 113 107 106 113 101 102 92
150 157 146 144 152 148 139 120 131 144 148 142 127 125 117 95 126 128 123 118 105 111 112 102 124 116 103 121 137 117 153 144 139 139 137 136 125 117 118 114 113 123 110
155 147 158 164 153 149 128 120 135 143 124 130 124 113 98 99 73 119 122 118 110 111 122 130 153 126 132 125 142 126 120 129 148 151 149 143 134 139 131 125 126 115 110
156 160 156 165 144 137 126 133 133 127 135 138 117 112 116 87 68 122 129 113 109 101 114 137 162 155 156 136 141 170 144 132 139 125 132 129 129 137 126 122 115 101 94
170 163 157 168 146 143 143 148 136 128 122 125 115 115 110 99 103 136 122 107 111 98 108 117 117 108 128 124 118 111 108 85 77 103 106 114 116 112 125 120 124 127 120
176 166 169 162 155 157 153 145 132 127 122 123 123 119 120 116 149 168 127 121 109 99 92 96 104 118 120 118 115 121 116 126 117 112 111 102 110 111 94 114 141 140 126
174 155 162 150 154 147 136 122 127 122 121 123 118 118 124 130 132 142 129 106 127 121 112 106 103 122 114 107 110 113 120 126 121 122 124 122 128 127 117 105 114 144 144
158 161 140 133 148 141 134 120 127 132 130 136 123 119 98 106 93 120 99 112 148 127 142 112 113 125 113 106 103 115 113 117 121 123 129 133 135 140 131 121 118 127 72
152 152 136 133 138 139 136 137 136 138 144 145 143 139 134 133 110 74 98 106 92 97 96 100 120 116 110 102 120 119 120 126 131 132 136 136 139 134 117 98 93 90 56
154 141 139 141 141 132 127 143 152 157 150 152 154 149 150 149 120 117 123 107 94 81 100 98 111 107 104 120 125 125 136 140 141 139 135 107 114 131 142 144 158 173 145
150 145 145 143 151 133 118 152 157 168 158 155 166 165 164 183 187 159 150 141 112 112 116 115 108 110 128 145 141 136 134 135 136 126 125 123 128 142 151 159 143 158 191
145 149 153 153 148 143 150 130 48 43 142 127 154 160 126 129 147 151 135 127 124 138 79 111 118 130 144 139 140 131 145 142 135 130 128 141 156 164 168 171 158 180 180
154 154 146 152 157 157 158 161 160 51 88 101 162 167 158 153 152 148 134 119 113 94 110 110 121 143 149 140 144 147 153 140 132 143 150 161 170 182 179 197 201 200 208
154 158 158 164 163 159 169 164 154 158 163 166 88 61 160 140 144 132 127 115 122 102 156 154 149 149 154 151 156 164 162 155 172 167 168 172 177 185 192 210 212 215 222
153 162 164 162 168 166 159 156 164 163 163 151 128 96 86 86 96 123 165 170 177 187 172 175 175 176 171 169 156 163 167 178 192 187 191 192 194 193 201 209 213 215 214
168 161 160 162 153 159 160 163 169 177 176 175 177 167 137 133 159 171 199 208 197 199 193 189 182 183 189 195 191 180 188 184 193 203 204 205 206 210 221 220 221 221 220
164 161 160 160 167 174 175 181 182 177 186 191 194 172 174 176 181 186 192 205 218 214 205 204 196 193 191 192 195 200 204 205 208 211 212 212 212 219 224 230 236 236 241
160 163 168 175 168 171 184 184 181 184 191 195 193 162 169 199 188 192 197 203 208 211 207 200 203 204 202 200 198 201 205 210 210 210 214 217 216 222 225 229 234 237 238
143 154 177 170 172 165 161 179 186 191 193 200 191 168 178 202 206 202 203 206 205 208 206 205 208 209 206 203 199 200 205 212 213 206 211 214 217 219 220 224 228 233 231
155 138 161 160 164 168 175 183 190 192 194 199 194 190 192 202 208 214 212 207 203 207 207 210 215 218 215 211 208 210 214 216 209 208 209 214 219 217 225 227 230 232 236
59 90 84 74 81 156 159 170 175 187 200 206 210 213 211 208 212 218 218 215 214 211 212 210 212 219 219 217 217 216 215 205 211 207 207 218 221 220 220 224 226 227 228
35 54 59 57 55 55 65 91 62 22 326 289 275 251 229 215 226 230 228 225 224 224 224 220 225 225 225 225 226 222 213 208 211 212 214 218 224 225 225 226 228 225 227